| time (UTC) | temp F | wind direction | speed knots | gust knots | rain 1hr in | rain 24hr in | rain mn in | humidity % | barometer mb |
| 20260903180543 | 69 | 0 | 0.0 | 6.1 | 0.00 | 0.18 | 0.18 | 82 | 1018.1 |
| 20260903180109 | 69 | 0 | 0.0 | 6.1 | 0.00 | 0.18 | 0.18 | 82 | 1018.1 |
| 20260903175543 | 69 | 0 | 0.0 | 6.1 | 0.00 | 0.18 | 0.18 | 82 | 1018.0 |
| 20260903175043 | 69 | 0 | 0.0 | 6.1 | 0.00 | 0.18 | 0.18 | 83 | 1018.1 |
| 20260903174558 | 69 | 221 | 0.0 | 0.0 | 0.00 | 0.18 | 0.18 | 84 | 1018.2 |
| 20260903174043 | 69 | 0 | 0.0 | 0.0 | 0.00 | 0.18 | 0.18 | 84 | 1018.1 |
| 20260903173544 | 69 | 0 | 0.0 | 7.0 | 0.00 | 0.18 | 0.18 | 83 | 1018.1 |
| 20260903173104 | 69 | 0 | 0.0 | 7.0 | 0.00 | 0.18 | 0.18 | 83 | 1018.3 |
| 20260903172542 | 69 | 0 | 0.9 | 7.0 | 0.00 | 0.18 | 0.18 | 83 | 1018.3 |
| 20260903172042 | 69 | 0 | 0.0 | 0.0 | 0.00 | 0.18 | 0.18 | 83 | 1018.4 |
| 20260903171614 | 69 | 0 | 0.0 | 0.0 | 0.00 | 0.18 | 0.18 | 83 | 1018.3 |
| 20260903171043 | 69 | 0 | 0.0 | 5.2 | 0.00 | 0.18 | 0.18 | 82 | 1018.2 |
| 20260903170546 | 69 | 0 | 0.0 | 7.0 | 0.00 | 0.18 | 0.18 | 82 | 1018.1 |
| 20260903170109 | 70 | 0 | 0.0 | 9.6 | 0.00 | 0.18 | 0.18 | 81 | 1018.1 |
| 20260903165542 | 70 | 239 | 1.7 | 13.9 | 0.00 | 0.18 | 0.18 | 80 | 1018.1 |
| 20260903165042 | 70 | 213 | 1.7 | 13.9 | 0.00 | 0.18 | 0.18 | 80 | 1017.9 |
| 20260903164609 | 70 | 0 | 0.9 | 13.9 | 0.00 | 0.18 | 0.18 | 81 | 1018.0 |
| 20260903164043 | 70 | 0 | 0.9 | 13.9 | 0.00 | 0.18 | 0.18 | 80 | 1018.0 |
| 20260903163545 | 70 | 207 | 2.6 | 10.4 | 0.00 | 0.18 | 0.18 | 81 | 1017.9 |
| 20260903163104 | 70 | 0 | 0.0 | 9.6 | 0.00 | 0.18 | 0.18 | 81 | 1017.9 |
| 20260903162542 | 70 | 211 | 2.6 | 14.8 | 0.00 | 0.18 | 0.18 | 80 | 1017.9 |
| 20260903162041 | 70 | 229 | 4.3 | 14.8 | 0.00 | 0.18 | 0.18 | 80 | 1018.0 |
| 20260903161604 | 70 | 249 | 1.7 | 12.2 | 0.00 | 0.18 | 0.18 | 80 | 1018.1 |
| 20260903161043 | 70 | 228 | 4.3 | 12.2 | 0.00 | 0.18 | 0.18 | 80 | 1018.1 |
| 20260903160543 | 70 | 208 | 2.6 | 14.8 | 0.00 | 0.18 | 0.18 | 80 | 1017.9 |
| 20260903160109 | 70 | 0 | 3.5 | 14.8 | 0.00 | 0.18 | 0.18 | 80 | 1017.9 |
| 20260903155542 | 70 | 237 | 3.5 | 14.8 | 0.00 | 0.18 | 0.18 | 79 | 1017.9 |
| 20260903155042 | 71 | 241 | 4.3 | 16.5 | 0.00 | 0.18 | 0.18 | 79 | 1018.1 |
| 20260903154609 | 71 | 236 | 2.6 | 16.5 | 0.00 | 0.18 | 0.18 | 78 | 1018.1 |
| 20260903154047 | 71 | 183 | 6.1 | 18.2 | 0.00 | 0.18 | 0.18 | 78 | 1018.1 |
| 20260903153544 | 70 | 229 | 3.5 | 18.2 | 0.00 | 0.18 | 0.18 | 78 | 1018.2 |
| 20260903153107 | 70 | 216 | 5.2 | 15.6 | 0.00 | 0.18 | 0.18 | 79 | 1018.3 |
| 20260903152543 | 70 | 240 | 5.2 | 15.6 | 0.00 | 0.18 | 0.18 | 80 | 1018.2 |
| 20260903152042 | 70 | 0 | 0.9 | 14.8 | 0.00 | 0.18 | 0.18 | 80 | 1018.1 |
| 20260903151604 | 70 | 215 | 4.3 | 14.8 | 0.00 | 0.18 | 0.18 | 79 | 1018.1 |
| 20260903151046 | 71 | 210 | 3.5 | 14.8 | 0.00 | 0.18 | 0.18 | 78 | 1018.2 |
| 20260903150545 | 70 | 206 | 4.3 | 14.8 | 0.00 | 0.18 | 0.18 | 80 | 1018.2 |
| 20260903150108 | 69 | 212 | 0.9 | 13.0 | 0.00 | 0.18 | 0.18 | 81 | 1018.2 |
| 20260903145542 | 69 | 0 | 0.9 | 10.4 | 0.00 | 0.18 | 0.18 | 81 | 1018.2 |
| 20260903145045 | 70 | 231 | 0.9 | 13.0 | 0.00 | 0.18 | 0.18 | 80 | 1018.3 |
| 20260903144559 | 70 | 0 | 0.9 | 13.9 | 0.00 | 0.18 | 0.18 | 81 | 1018.2 |
| 20260903144044 | 70 | 248 | 5.2 | 13.9 | 0.00 | 0.18 | 0.18 | 80 | 1018.1 |
| 20260903143542 | 70 | 230 | 3.5 | 16.5 | 0.00 | 0.18 | 0.18 | 81 | 1018.2 |
| 20260903143109 | 69 | 169 | 6.1 | 16.5 | 0.00 | 0.18 | 0.18 | 82 | 1018.1 |
| 20260903142543 | 69 | 0 | 2.6 | 16.5 | 0.00 | 0.18 | 0.18 | 82 | 1018.1 |
| 20260903142046 | 69 | 0 | 3.5 | 16.5 | 0.00 | 0.18 | 0.18 | 82 | 1018.1 |
| 20260903141611 | 69 | 236 | 3.5 | 16.5 | 0.00 | 0.18 | 0.18 | 82 | 1018.1 |
| 20260903141042 | 69 | 0 | 2.6 | 13.0 | 0.00 | 0.18 | 0.18 | 83 | 1018.2 |
| 20260903140542 | 69 | 244 | 2.6 | 13.0 | 0.00 | 0.18 | 0.18 | 83 | 1018.2 |
| 20260903140115 | 69 | 0 | 0.0 | 17.4 | 0.00 | 0.18 | 0.18 | 83 | 1018.2 |
| 20260903135542 | 69 | 227 | 2.6 | 17.4 | 0.00 | 0.18 | 0.18 | 82 | 1018.3 |
| 20260903135043 | 69 | 0 | 3.5 | 13.0 | 0.00 | 0.18 | 0.18 | 84 | 1018.3 |
| 20260903134559 | 69 | 0 | 4.3 | 15.6 | 0.00 | 0.18 | 0.18 | 83 | 1018.2 |
| 20260903134043 | 68 | 221 | 4.3 | 19.1 | 0.00 | 0.18 | 0.18 | 83 | 1018.0 |
| 20260903133543 | 69 | 243 | 4.3 | 19.1 | 0.00 | 0.18 | 0.18 | 83 | 1018.2 |
| 20260903133109 | 69 | 232 | 6.1 | 19.1 | 0.00 | 0.18 | 0.18 | 84 | 1018.2 |
| 20260903132547 | 68 | 0 | 6.1 | 19.1 | 0.00 | 0.18 | 0.18 | 84 | 1018.3 |
| 20260903132047 | 69 | 257 | 5.2 | 17.4 | 0.00 | 0.18 | 0.18 | 85 | 1018.3 |
| 20260903131611 | 68 | 200 | 5.2 | 17.4 | 0.00 | 0.18 | 0.18 | 85 | 1018.3 |
| 20260903131045 | 68 | 248 | 5.2 | 16.5 | 0.00 | 0.18 | 0.18 | 86 | 1018.3 |
| 20260903130546 | 68 | 248 | 6.1 | 18.2 | 0.00 | 0.18 | 0.18 | 87 | 1018.3 |
| 20260903130106 | 68 | 228 | 7.0 | 18.2 | 0.00 | 0.18 | 0.18 | 86 | 1018.4 |
| 20260903125546 | 68 | 274 | 6.1 | 17.4 | 0.00 | 0.18 | 0.18 | 87 | 1018.3 |
| 20260903125047 | 67 | 0 | 5.2 | 17.4 | 0.00 | 0.18 | 0.18 | 89 | 1018.1 |
| 20260903124601 | 67 | 242 | 1.7 | 18.2 | 0.00 | 0.18 | 0.18 | 90 | 1018.4 |
| 20260903124046 | 66 | 0 | 1.7 | 18.2 | 0.00 | 0.18 | 0.18 | 90 | 1018.3 |
| 20260903123546 | 66 | 244 | 4.3 | 16.5 | 0.00 | 0.18 | 0.18 | 90 | 1018.1 |
| 20260903123107 | 66 | 214 | 6.1 | 13.9 | 0.00 | 0.18 | 0.18 | 91 | 1018.1 |
| 20260903122546 | 65 | 212 | 1.7 | 16.5 | 0.00 | 0.18 | 0.18 | 92 | 1018.0 |
| 20260903122046 | 65 | 251 | 4.3 | 16.5 | 0.00 | 0.18 | 0.18 | 93 | 1018.1 |
| 20260903121625 | 65 | 205 | 3.5 | 15.6 | 0.00 | 0.18 | 0.18 | 93 | 1018.1 |
| 20260903121044 | 64 | 248 | 5.2 | 15.6 | 0.00 | 0.18 | 0.18 | 93 | 1018.1 |
| 20260903120549 | 64 | 217 | 4.3 | 14.8 | 0.00 | 0.18 | 0.18 | 93 | 1018.1 |
| 20260903120112 | 64 | 224 | 1.7 | 13.9 | 0.00 | 0.18 | 0.18 | 94 | 1018.1 |
| 20260903115547 | 64 | 0 | 2.6 | 13.9 | 0.00 | 0.18 | 0.18 | 94 | 1018.2 |
| 20260903115046 | 63 | 0 | 1.7 | 16.5 | 0.00 | 0.18 | 0.18 | 94 | 1018.1 |
| 20260903114604 | 63 | 249 | 0.0 | 16.5 | 0.00 | 0.18 | 0.18 | 94 | 1018.2 |
| 20260903114047 | 63 | 0 | 4.3 | 14.8 | 0.00 | 0.18 | 0.18 | 94 | 1018.3 |
| 20260903113546 | 63 | 227 | 0.9 | 10.4 | 0.00 | 0.18 | 0.18 | 94 | 1018.3 |
| 20260903113057 | 63 | 0 | 0.9 | 10.4 | 0.00 | 0.18 | 0.18 | 94 | 1018.2 |
| 20260903112546 | 63 | 0 | 2.6 | 10.4 | 0.00 | 0.18 | 0.18 | 94 | 1018.3 |
| 20260903112046 | 63 | 0 | 0.0 | 12.2 | 0.00 | 0.18 | 0.18 | 94 | 1018.2 |
| 20260903111557 | 63 | 212 | 0.9 | 12.2 | 0.00 | 0.18 | 0.18 | 94 | 1018.3 |
| 20260903111047 | 63 | 232 | 0.9 | 9.6 | 0.00 | 0.18 | 0.18 | 94 | 1018.3 |
| 20260903110549 | 62 | 0 | 1.7 | 9.6 | 0.00 | 0.18 | 0.18 | 94 | 1018.2 |
| 20260903110104 | 62 | 0 | 0.0 | 10.4 | 0.00 | 0.18 | 0.18 | 94 | 1018.3 |
| 20260903105546 | 62 | 0 | 2.6 | 10.4 | 0.00 | 0.18 | 0.18 | 94 | 1018.5 |
| 20260903105047 | 62 | 0 | 1.7 | 13.0 | 0.00 | 0.18 | 0.18 | 94 | 1018.4 |
| 20260903104603 | 62 | 236 | 1.7 | 13.9 | 0.00 | 0.18 | 0.18 | 94 | 1018.4 |
| 20260903104045 | 62 | 200 | 3.5 | 13.9 | 0.00 | 0.18 | 0.18 | 94 | 1018.4 |
| 20260903103545 | 62 | 198 | 1.7 | 10.4 | 0.00 | 0.18 | 0.18 | 94 | 1018.4 |
| 20260903103056 | 62 | 0 | 0.0 | 7.8 | 0.00 | 0.18 | 0.18 | 94 | 1018.3 |
| 20260903102547 | 62 | 0 | 0.0 | 9.6 | 0.00 | 0.18 | 0.18 | 94 | 1018.3 |
| 20260903102046 | 62 | 0 | 0.9 | 9.6 | 0.00 | 0.18 | 0.18 | 93 | 1018.2 |
| 20260903101605 | 62 | 242 | 1.7 | 11.3 | 0.05 | 0.18 | 0.18 | 94 | 1018.3 |
| 20260903101048 | 61 | 229 | 1.7 | 11.3 | 0.05 | 0.18 | 0.18 | 94 | 1018.4 |
| 20260903100546 | 61 | 0 | 0.9 | 10.4 | 0.05 | 0.18 | 0.18 | 94 | 1018.4 |
| 20260903100104 | 61 | 0 | 0.0 | 8.7 | 0.05 | 0.18 | 0.18 | 94 | 1018.5 |
| 20260903095546 | 61 | 236 | 1.7 | 8.7 | 0.05 | 0.18 | 0.18 | 94 | 1018.6 |
| 20260903095045 | 61 | 248 | 2.6 | 8.7 | 0.05 | 0.18 | 0.18 | 94 | 1018.4 |
| 20260903094608 | 61 | 0 | 0.0 | 9.6 | 0.07 | 0.18 | 0.18 | 94 | 1018.3 |
| 20260903094043 | 61 | 0 | 0.0 | 9.6 | 0.09 | 0.18 | 0.18 | 94 | 1018.5 |
| 20260903093543 | 61 | 0 | 0.9 | 9.6 | 0.14 | 0.18 | 0.18 | 94 | 1018.2 |
| 20260903093108 | 61 | 0 | 0.9 | 7.8 | 0.17 | 0.18 | 0.18 | 93 | 1018.3 |
| 20260903092546 | 61 | 246 | 0.9 | 7.8 | 0.18 | 0.18 | 0.18 | 93 | 1018.2 |
| 20260903092047 | 61 | 0 | 0.0 | 7.0 | 0.16 | 0.16 | 0.16 | 92 | 1018.4 |
| 20260903091606 | 62 | 0 | 0.0 | 7.8 | 0.12 | 0.12 | 0.12 | 92 | 1018.4 |
| 20260903091046 | 62 | 0 | 0.0 | 7.8 | 0.12 | 0.12 | 0.12 | 93 | 1018.4 |
| 20260903090543 | 62 | 0 | 0.0 | 7.0 | 0.12 | 0.12 | 0.12 | 93 | 1018.4 |
| 20260903090109 | 61 | 0 | 0.9 | 7.0 | 0.12 | 0.12 | 0.12 | 93 | 1018.4 |
| 20260903085549 | 61 | 0 | 0.0 | 7.8 | 0.12 | 0.12 | 0.12 | 92 | 1018.3 |
| 20260903085046 | 61 | 0 | 0.0 | 7.8 | 0.12 | 0.12 | 0.12 | 91 | 1018.4 |
| 20260903084602 | 61 | 226 | 0.9 | 9.6 | 0.11 | 0.11 | 0.11 | 90 | 1018.4 |
| 20260903084043 | 62 | 0 | 0.9 | 13.9 | 0.08 | 0.08 | 0.08 | 87 | 1018.5 |
| 20260903083542 | 62 | 224 | 3.5 | 13.9 | 0.03 | 0.03 | 0.03 | 85 | 1018.4 |
| 20260903083056 | 63 | 200 | 2.6 | 13.9 | 0.00 | 0.00 | 0.00 | 83 | 1018.7 |
| 20260903082542 | 64 | 0 | 0.9 | 8.7 | 0.00 | 0.00 | 0.00 | 81 | 1018.5 |
| 20260903082046 | 65 | 0 | 0.0 | 12.2 | 0.00 | 0.00 | 0.00 | 79 | 1018.3 |
| 20260903081604 | 65 | 209 | 0.9 | 12.2 | 0.00 | 0.00 | 0.00 | 80 | 1018.3 |
| 20260903081043 | 64 | 227 | 2.6 | 12.2 | 0.00 | 0.00 | 0.00 | 80 | 1018.2 |
| 20260903080542 | 64 | 211 | 0.9 | 13.9 | 0.00 | 0.00 | 0.00 | 80 | 1018.1 |
| 20260903075546 | 65 | 248 | 4.3 | 20.0 | 0.00 | 0.00 | 0.00 | 74 | 1018.2 |
| 20260903075045 | 66 | 249 | 2.6 | 20.0 | 0.00 | 0.00 | 0.00 | 69 | 1018.0 |
| 20260903074607 | 66 | 224 | 0.9 | 13.9 | 0.00 | 0.00 | 0.00 | 69 | 1018.2 |
| 20260903074045 | 66 | 0 | 2.6 | 15.6 | 0.00 | 0.00 | 0.00 | 69 | 1018.2 |
| 20260903073544 | 66 | 234 | 2.6 | 15.6 | 0.00 | 0.00 | 0.00 | 69 | 1018.3 |
| 20260903073106 | 66 | 0 | 1.7 | 10.4 | 0.00 | 0.00 | 0.00 | 68 | 1018.2 |
| 20260903072544 | 66 | 0 | 0.9 | 11.3 | 0.00 | 0.00 | 0.00 | 69 | 1018.1 |
| 20260903072045 | 66 | 0 | 1.7 | 13.0 | 0.00 | 0.00 | 0.00 | 68 | 1018.0 |
| 20260903071609 | 66 | 258 | 2.6 | 15.6 | 0.00 | 0.00 | 0.00 | 68 | 1018.0 |
| 20260903071047 | 66 | 223 | 3.5 | 15.6 | 0.00 | 0.00 | 0.00 | 68 | 1018.2 |
| 20260903070544 | 66 | 0 | 1.7 | 12.2 | 0.00 | 0.00 | 0.00 | 68 | 1018.2 |
| 20260903070107 | 66 | 234 | 2.6 | 12.2 | 0.00 | 0.00 | 0.00 | 68 | 1018.2 |
| 20260903065545 | 66 | 0 | 0.0 | 12.2 | 0.00 | 0.00 | 0.00 | 68 | 1018.1 |
| 20260903065043 | 66 | 0 | 0.0 | 12.2 | 0.00 | 0.00 | 0.00 | 68 | 1018.3 |
| 20260903064602 | 65 | 0 | 2.6 | 10.4 | 0.00 | 0.00 | 0.00 | 68 | 1018.2 |
| 20260903064044 | 65 | 0 | 2.6 | 18.2 | 0.00 | 0.00 | 0.00 | 68 | 1018.2 |
| 20260903063545 | 65 | 0 | 0.9 | 18.2 | 0.00 | 0.00 | 0.00 | 68 | 1018.2 |
| 20260903063103 | 65 | 190 | 2.6 | 18.2 | 0.00 | 0.00 | 0.00 | 69 | 1018.1 |
| 20260903062545 | 65 | 0 | 1.7 | 10.4 | 0.00 | 0.00 | 0.00 | 69 | 1018.2 |
| 20260903062045 | 65 | 226 | 0.9 | 16.5 | 0.00 | 0.00 | 0.00 | 69 | 1018.1 |
| 20260903061605 | 65 | 186 | 2.6 | 16.5 | 0.00 | 0.00 | 0.00 | 69 | 1018.1 |
| 20260903061046 | 65 | 240 | 1.7 | 9.6 | 0.00 | 0.00 | 0.00 | 69 | 1018.2 |
| 20260903060544 | 65 | 229 | 3.5 | 9.6 | 0.00 | 0.00 | 0.00 | 70 | 1018.2 |
| 20260903060122 | 64 | 0 | 1.7 | 10.4 | 0.00 | 0.00 | 0.00 | 70 | 1018.1 |
| 20260903055543 | 64 | 0 | 1.7 | 10.4 | 0.00 | 0.00 | 0.00 | 70 | 1018.2 |
| 20260903055043 | 64 | 218 | 0.9 | 7.8 | 0.00 | 0.00 | 0.00 | 70 | 1018.1 |
| 20260903054557 | 64 | 0 | 0.9 | 7.0 | 0.00 | 0.00 | 0.00 | 70 | 1018.0 |
| 20260903054047 | 64 | 0 | 0.0 | 9.6 | 0.00 | 0.00 | 0.00 | 70 | 1017.8 |
| 20260903053544 | 64 | 0 | 1.7 | 9.6 | 0.00 | 0.00 | 0.00 | 70 | 1017.7 |
| 20260903053105 | 64 | 0 | 0.9 | 9.6 | 0.00 | 0.00 | 0.00 | 70 | 1017.7 |
| 20260903052543 | 64 | 175 | 0.9 | 7.0 | 0.00 | 0.00 | 0.00 | 69 | 1017.6 |
| 20260903052045 | 64 | 0 | 0.0 | 7.0 | 0.00 | 0.00 | 0.00 | 69 | 1017.8 |
| 20260903051608 | 64 | 0 | 0.0 | 7.0 | 0.00 | 0.00 | 0.00 | 70 | 1018.0 |
| 20260903051044 | 64 | 205 | 0.0 | 7.8 | 0.00 | 0.00 | 0.00 | 69 | 1018.2 |
| 20260903050543 | 64 | 0 | 0.9 | 8.7 | 0.00 | 0.00 | 0.00 | 70 | 1018.1 |
| 20260903050114 | 64 | 0 | 1.7 | 8.7 | 0.00 | 0.00 | 0.00 | 70 | 1018.3 |
| 20260903045545 | 64 | 159 | 0.9 | 8.7 | 0.00 | 0.00 | 0.00 | 70 | 1018.2 |
| 20260903045042 | 64 | 0 | 1.7 | 9.6 | 0.00 | 0.00 | 0.00 | 70 | 1018.3 |
| 20260903044606 | 63 | 0 | 1.7 | 9.6 | 0.00 | 0.00 | 0.00 | 71 | 1018.1 |
| 20260903044043 | 63 | 0 | 0.0 | 6.1 | 0.00 | 0.00 | 0.00 | 72 | 1018.1 |
| 20260903043543 | 63 | 237 | 0.0 | 6.1 | 0.00 | 0.00 | 0.00 | 73 | 1018.2 |
| 20260903043104 | 63 | 0 | 0.0 | 6.1 | 0.00 | 0.00 | 0.00 | 73 | 1018.3 |
| 20260903042546 | 63 | 0 | 0.0 | 6.1 | 0.00 | 0.00 | 0.00 | 73 | 1018.4 |
| 20260903042046 | 62 | 0 | 0.0 | 6.1 | 0.00 | 0.00 | 0.00 | 74 | 1018.3 |
| 20260903041559 | 62 | 0 | 0.0 | 5.2 | 0.00 | 0.00 | 0.00 | 74 | 1018.3 |
| 20260903041047 | 63 | 0 | 0.0 | 2.6 | 0.00 | 0.00 | 0.00 | 74 | 1018.2 |
| 20260903040549 | 63 | 0 | 0.0 | 2.6 | 0.00 | 0.00 | 0.00 | 74 | 1018.2 |
| 20260903040109 | 63 | 186 | 0.0 | 4.3 | 0.00 | 0.00 | 0.00 | 74 | 1018.4 |
| 20260903035542 | 63 | 0 | 0.0 | 5.2 | 0.00 | 0.00 | 0.00 | 74 | 1018.4 |
| 20260903035043 | 63 | 215 | 0.0 | 5.2 | 0.00 | 0.00 | 0.00 | 74 | 1018.7 |
| 20260903034602 | 63 | 0 | 0.0 | 4.3 | 0.00 | 0.00 | 0.00 | 74 | 1018.9 |
| 20260903034043 | 63 | 0 | 0.0 | 7.0 | 0.00 | 0.00 | 0.00 | 74 | 1018.9 |
| 20260903033549 | 63 | 0 | 0.0 | 7.0 | 0.00 | 0.00 | 0.00 | 74 | 1018.9 |
| 20260903033103 | 63 | 0 | 0.0 | 7.0 | 0.00 | 0.00 | 0.00 | 74 | 1018.9 |
| 20260903032543 | 63 | 0 | 0.0 | 5.2 | 0.00 | 0.00 | 0.00 | 73 | 1018.9 |
| 20260903032046 | 63 | 0 | 0.0 | 4.3 | 0.00 | 0.00 | 0.00 | 74 | 1018.9 |
| 20260903031606 | 63 | 0 | 0.0 | 6.1 | 0.00 | 0.00 | 0.00 | 74 | 1018.8 |
| 20260903031047 | 62 | 0 | 0.0 | 6.1 | 0.00 | 0.00 | 0.00 | 75 | 1019.0 |
| 20260903030546 | 62 | 195 | 0.0 | 4.3 | 0.00 | 0.00 | 0.00 | 75 | 1019.2 |
| 20260903030105 | 62 | 0 | 0.0 | 1.7 | 0.00 | 0.00 | 0.00 | 75 | 1019.0 |
| 20260903025545 | 61 | 0 | 0.0 | 0.0 | 0.00 | 0.00 | 0.00 | 75 | 1018.9 |
| 20260903025043 | 61 | 0 | 0.0 | 0.0 | 0.00 | 0.00 | 0.00 | 76 | 1018.9 |
| 20260903024604 | 62 | 0 | 0.0 | 0.0 | 0.00 | 0.00 | 0.00 | 75 | 1019.0 |
| 20260903024046 | 62 | 0 | 0.0 | 0.0 | 0.00 | 0.00 | 0.00 | 74 | 1019.0 |
| 20260903023546 | 62 | 0 | 0.0 | 2.6 | 0.00 | 0.00 | 0.00 | 74 | 1019.1 |
| 20260903023107 | 63 | 0 | 0.0 | 2.6 | 0.00 | 0.00 | 0.00 | 74 | 1019.3 |
| 20260903022543 | 63 | 0 | 0.0 | 7.0 | 0.00 | 0.00 | 0.00 | 75 | 1019.3 |
| 20260903022046 | 63 | 0 | 0.0 | 7.0 | 0.00 | 0.00 | 0.00 | 75 | 1019.3 |
| 20260903021559 | 63 | 0 | 0.0 | 7.0 | 0.00 | 0.00 | 0.00 | 75 | 1019.4 |
| 20260903021046 | 63 | 0 | 0.0 | 7.0 | 0.00 | 0.00 | 0.00 | 74 | 1019.6 |
| 20260903020542 | 63 | 0 | 0.0 | 3.5 | 0.00 | 0.00 | 0.00 | 74 | 1019.8 |
| 20260903020105 | 63 | 0 | 0.0 | 0.0 | 0.00 | 0.00 | 0.00 | 74 | 1019.6 |
| 20260903015543 | 63 | 0 | 0.0 | 0.0 | 0.00 | 0.00 | 0.00 | 74 | 1019.6 |
| 20260903015046 | 63 | 0 | 0.0 | 0.0 | 0.00 | 0.00 | 0.00 | 73 | 1019.6 |
| 20260903014633 | 63 | 0 | 0.0 | 0.0 | 0.00 | 0.00 | 0.00 | 73 | 1019.7 |
| 20260903014044 | 63 | 0 | 0.0 | 0.0 | 0.00 | 0.00 | 0.00 | 73 | 1019.7 |
| 20260903013544 | 63 | 0 | 0.0 | 8.7 | 0.00 | 0.00 | 0.00 | 73 | 1019.8 |
| 20260903013122 | 63 | 0 | 0.0 | 8.7 | 0.00 | 0.00 | 0.00 | 72 | 1019.8 |
| 20260903012543 | 63 | 238 | 0.0 | 7.8 | 0.00 | 0.00 | 0.00 | 73 | 1019.7 |
| 20260903012045 | 63 | 0 | 0.0 | 6.1 | 0.00 | 0.00 | 0.00 | 73 | 1019.8 |
| 20260903011608 | 63 | 0 | 0.0 | 6.1 | 0.00 | 0.00 | 0.00 | 74 | 1019.9 |
| 20260903011043 | 63 | 175 | 0.0 | 6.1 | 0.00 | 0.00 | 0.00 | 74 | 1019.9 |
| 20260903010546 | 62 | 0 | 0.0 | 1.7 | 0.00 | 0.00 | 0.00 | 75 | 1019.9 |
| 20260903010107 | 62 | 0 | 0.0 | 1.7 | 0.00 | 0.00 | 0.00 | 75 | 1019.8 |
| 20260903005547 | 62 | 0 | 0.0 | 0.0 | 0.00 | 0.00 | 0.00 | 75 | 1019.8 |
| 20260903005045 | 62 | 0 | 0.0 | 0.0 | 0.00 | 0.00 | 0.00 | 75 | 1019.9 |
| 20260903004605 | 63 | 0 | 0.0 | 4.3 | 0.00 | 0.00 | 0.00 | 74 | 1020.0 |
| 20260903004044 | 63 | 0 | 0.0 | 4.3 | 0.00 | 0.00 | 0.00 | 74 | 1020.0 |
| 20260903003544 | 63 | 0 | 0.0 | 4.3 | 0.00 | 0.00 | 0.00 | 74 | 1020.1 |
| 20260903003102 | 63 | 0 | 0.0 | 3.5 | 0.00 | 0.00 | 0.00 | 74 | 1020.2 |
| 20260903002547 | 63 | 0 | 0.0 | 5.2 | 0.00 | 0.00 | 0.00 | 74 | 1020.1 |
| 20260903002046 | 63 | 0 | 0.0 | 5.2 | 0.00 | 0.00 | 0.00 | 74 | 1020.3 |
| 20260903001601 | 63 | 0 | 0.0 | 1.7 | 0.00 | 0.00 | 0.00 | 74 | 1020.2 |
| 20260903001046 | 63 | 0 | 0.0 | 4.3 | 0.00 | 0.00 | 0.00 | 75 | 1020.4 |
| 20260903000548 | 62 | 0 | 0.0 | 4.3 | 0.00 | 0.00 | 0.00 | 76 | 1020.3 |
| 20260903000109 | 62 | 0 | 0.0 | 3.5 | 0.00 | 0.00 | 0.00 | 76 | 1020.3 |
| 20260902235547 | 62 | 0 | 0.0 | 3.5 | 0.00 | 0.00 | 0.00 | 77 | 1020.2 |
| 20260902235043 | 62 | 0 | 0.0 | 2.6 | 0.00 | 0.00 | 0.00 | 77 | 1020.4 |
| 20260902234605 | 62 | 0 | 0.0 | 2.6 | 0.00 | 0.00 | 0.00 | 77 | 1020.3 |
| 20260902234044 | 62 | 0 | 0.0 | 0.0 | 0.00 | 0.00 | 0.00 | 77 | 1020.4 |
| 20260902233543 | 62 | 0 | 0.0 | 0.0 | 0.00 | 0.00 | 0.00 | 78 | 1020.4 |
| 20260902233104 | 62 | 0 | 0.0 | 0.0 | 0.00 | 0.00 | 0.00 | 77 | 1020.5 |
| 20260902232542 | 62 | 0 | 0.0 | 0.0 | 0.00 | 0.00 | 0.00 | 77 | 1020.6 |
| 20260902232046 | 62 | 0 | 0.0 | 0.0 | 0.00 | 0.00 | 0.00 | 78 | 1020.6 |
| 20260902231602 | 62 | 0 | 0.0 | 0.0 | 0.00 | 0.00 | 0.00 | 77 | 1020.7 |
| 20260902231044 | 62 | 0 | 0.0 | 0.0 | 0.00 | 0.00 | 0.00 | 76 | 1020.7 |
| 20260902230548 | 62 | 0 | 0.0 | 0.0 | 0.00 | 0.00 | 0.00 | 76 | 1020.8 |
| 20260902230104 | 62 | 0 | 0.0 | 0.0 | 0.00 | 0.00 | 0.00 | 76 | 1020.8 |
| 20260902225546 | 62 | 0 | 0.0 | 0.0 | 0.00 | 0.00 | 0.00 | 76 | 1020.9 |
| 20260902225044 | 62 | 0 | 0.0 | 0.0 | 0.00 | 0.00 | 0.00 | 76 | 1020.8 |
| 20260902224611 | 62 | 0 | 0.0 | 0.0 | 0.00 | 0.00 | 0.00 | 78 | 1020.9 |
| 20260902224044 | 62 | 0 | 0.0 | 0.0 | 0.00 | 0.00 | 0.00 | 78 | 1020.9 |
| 20260902223542 | 62 | 0 | 0.0 | 0.0 | 0.00 | 0.00 | 0.00 | 80 | 1020.9 |
| 20260902223110 | 62 | 0 | 0.0 | 0.0 | 0.00 | 0.00 | 0.00 | 80 | 1020.9 |
| 20260902222542 | 61 | 0 | 0.0 | 0.0 | 0.00 | 0.00 | 0.00 | 81 | 1020.9 |
| 20260902222043 | 61 | 0 | 0.0 | 0.0 | 0.00 | 0.00 | 0.00 | 82 | 1020.9 |
| 20260902221600 | 61 | 0 | 0.0 | 0.0 | 0.00 | 0.00 | 0.00 | 83 | 1021.1 |
| 20260902221042 | 60 | 0 | 0.0 | 0.0 | 0.00 | 0.00 | 0.00 | 83 | 1021.1 |
| 20260902220546 | 60 | 0 | 0.0 | 0.0 | 0.00 | 0.00 | 0.00 | 83 | 1021.2 |
| 20260902220109 | 60 | 0 | 0.0 | 0.0 | 0.00 | 0.00 | 0.00 | 83 | 1021.0 |
| 20260902215542 | 60 | 0 | 0.0 | 0.0 | 0.00 | 0.00 | 0.00 | 83 | 1021.0 |
| 20260902215042 | 61 | 0 | 0.0 | 0.0 | 0.00 | 0.00 | 0.00 | 82 | 1021.0 |
| 20260902214615 | 61 | 0 | 0.0 | 0.0 | 0.00 | 0.00 | 0.00 | 82 | 1021.1 |
| 20260902214046 | 61 | 0 | 0.0 | 0.0 | 0.00 | 0.00 | 0.00 | 82 | 1021.1 |
| 20260902213546 | 61 | 0 | 0.0 | 0.0 | 0.00 | 0.00 | 0.00 | 82 | 1021.1 |
| 20260902213104 | 61 | 0 | 0.0 | 0.0 | 0.00 | 0.00 | 0.00 | 81 | 1021.1 |
| 20260902212546 | 61 | 0 | 0.0 | 0.0 | 0.00 | 0.00 | 0.00 | 81 | 1021.0 |
| 20260902212045 | 61 | 0 | 0.0 | 0.0 | 0.00 | 0.00 | 0.00 | 80 | 1021.0 |
| 20260902211601 | 61 | 0 | 0.0 | 0.0 | 0.00 | 0.00 | 0.00 | 80 | 1021.1 |
| 20260902211042 | 62 | 0 | 0.0 | 0.0 | 0.00 | 0.00 | 0.00 | 80 | 1021.1 |
| 20260902210547 | 62 | 0 | 0.0 | 0.0 | 0.00 | 0.00 | 0.00 | 79 | 1021.3 |
| 20260902205542 | 62 | 0 | 0.0 | 0.0 | 0.00 | 0.00 | 0.00 | 79 | 1021.2 |
| 20260902205043 | 62 | 0 | 0.0 | 0.0 | 0.00 | 0.00 | 0.00 | 78 | 1021.2 |
| 20260902204606 | 62 | 0 | 0.0 | 0.0 | 0.00 | 0.00 | 0.00 | 78 | 1021.3 |
| 20260902204043 | 62 | 0 | 0.0 | 0.0 | 0.00 | 0.00 | 0.00 | 77 | 1021.3 |
| 20260902203542 | 63 | 0 | 0.0 | 0.0 | 0.00 | 0.00 | 0.00 | 77 | 1021.3 |
| 20260902203104 | 63 | 0 | 0.0 | 0.0 | 0.00 | 0.00 | 0.00 | 77 | 1021.3 |
| 20260902202545 | 63 | 0 | 0.0 | 0.0 | 0.00 | 0.00 | 0.00 | 77 | 1021.3 |
| 20260902202045 | 63 | 0 | 0.0 | 0.0 | 0.00 | 0.00 | 0.00 | 77 | 1021.3 |
| 20260902201559 | 63 | 0 | 0.0 | 0.0 | 0.00 | 0.00 | 0.00 | 76 | 1021.3 |
| 20260902201046 | 64 | 0 | 0.0 | 0.0 | 0.00 | 0.00 | 0.00 | 76 | 1021.2 |
| 20260902200545 | 64 | 0 | 0.0 | 0.0 | 0.00 | 0.00 | 0.00 | 76 | 1021.2 |
| 20260902200109 | 64 | 0 | 0.0 | 0.0 | 0.00 | 0.00 | 0.00 | 76 | 1021.3 |
| 20260902195547 | 64 | 0 | 0.0 | 0.0 | 0.00 | 0.00 | 0.00 | 77 | 1021.4 |
| 20260902195042 | 64 | 0 | 0.0 | 0.0 | 0.00 | 0.00 | 0.00 | 77 | 1021.5 |
| 20260902194607 | 64 | 0 | 0.0 | 0.0 | 0.00 | 0.00 | 0.00 | 76 | 1021.5 |
| 20260902194046 | 64 | 0 | 0.0 | 0.0 | 0.00 | 0.00 | 0.00 | 76 | 1021.3 |
| 20260902193542 | 64 | 0 | 0.0 | 0.0 | 0.00 | 0.00 | 0.00 | 76 | 1021.5 |
| 20260902193104 | 64 | 0 | 0.0 | 0.0 | 0.00 | 0.00 | 0.00 | 76 | 1021.4 |
| 20260902192544 | 64 | 0 | 0.0 | 0.0 | 0.00 | 0.00 | 0.00 | 76 | 1021.4 |
| 20260902192043 | 64 | 0 | 0.0 | 0.0 | 0.00 | 0.00 | 0.00 | 76 | 1021.4 |
| 20260902191558 | 64 | 0 | 0.0 | 0.0 | 0.00 | 0.00 | 0.00 | 76 | 1021.3 |
| 20260902191045 | 64 | 0 | 0.0 | 0.0 | 0.00 | 0.00 | 0.00 | 78 | 1021.2 |
| 20260902190545 | 64 | 0 | 0.0 | 0.0 | 0.00 | 0.00 | 0.00 | 78 | 1021.3 |
| 20260902190108 | 64 | 0 | 0.0 | 0.0 | 0.00 | 0.00 | 0.00 | 79 | 1021.3 |
| 20260902185544 | 64 | 0 | 0.0 | 0.0 | 0.00 | 0.00 | 0.00 | 79 | 1021.4 |
| 20260902185043 | 64 | 0 | 0.0 | 0.0 | 0.00 | 0.00 | 0.00 | 78 | 1021.3 |
| 20260902184607 | 64 | 0 | 0.0 | 0.0 | 0.00 | 0.00 | 0.00 | 78 | 1021.3 |
| 20260902184043 | 64 | 0 | 0.0 | 0.0 | 0.00 | 0.00 | 0.00 | 78 | 1021.3 |
| 20260902183543 | 64 | 0 | 0.0 | 0.0 | 0.00 | 0.00 | 0.00 | 77 | 1021.3 |
| 20260902183109 | 64 | 0 | 0.0 | 0.0 | 0.00 | 0.00 | 0.00 | 77 | 1021.1 |
| 20260902182550 | 65 | 0 | 0.0 | 0.0 | 0.00 | 0.00 | 0.00 | 77 | 1021.1 |
| 20260902182043 | 65 | 0 | 0.0 | 0.0 | 0.00 | 0.00 | 0.00 | 76 | 1021.0 |
| 20260902181558 | 65 | 0 | 0.0 | 0.0 | 0.00 | 0.00 | 0.00 | 76 | 1021.0 |
| 20260902181043 | 65 | 0 | 0.0 | 0.0 | 0.00 | 0.00 | 0.00 | 75 | 1021.0 |